| time (UTC) | temp F | wind direction | speed knots | gust knots | rain 1hr in | rain 24hr in | rain mn in | humidity % | barometer mb |
| 20260506184906 | 49 | 135 | 1.7 | 0.0 | 0.00 | 0.00 | 0.00 | 10 | 1009.3 |
| 20260506183839 | 49 | 180 | 1.7 | 0.0 | 0.00 | 0.00 | 0.00 | 10 | 1009.1 |
| 20260506182812 | 49 | 90 | 0.0 | 0.0 | 0.00 | 0.00 | 0.00 | 10 | 1009.0 |
| 20260506181744 | 49 | 315 | 1.7 | 0.0 | 0.00 | 0.00 | 0.00 | 10 | 1009.0 |
| 20260506180716 | 49 | 225 | 0.9 | 0.0 | 0.00 | 0.00 | 0.00 | 10 | 1008.9 |
| 20260506175649 | 50 | 135 | 2.6 | 0.0 | 0.01 | 0.00 | 0.00 | 10 | 1008.9 |
| 20260506174621 | 50 | 135 | 2.6 | 0.0 | 0.01 | 0.00 | 0.00 | 10 | 1008.8 |
| 20260506173554 | 50 | 135 | 2.6 | 0.0 | 0.01 | 0.00 | 0.00 | 10 | 1008.8 |
| 20260506172526 | 50 | 225 | 0.0 | 0.0 | 0.00 | 0.00 | 0.00 | 10 | 1008.7 |
| 20260506171459 | 50 | 315 | 0.0 | 0.0 | 0.00 | 0.00 | 0.00 | 10 | 1008.7 |
| 20260506170431 | 50 | 45 | 3.5 | 0.0 | 0.00 | 0.00 | 0.00 | 10 | 1008.6 |
| 20260506165404 | 50 | 135 | 1.7 | 0.0 | 0.00 | 0.00 | 0.00 | 10 | 1008.6 |
| 20260506164336 | 51 | 315 | 0.9 | 0.0 | 0.00 | 0.00 | 0.00 | 10 | 1008.4 |
| 20260506163309 | 51 | 135 | 0.9 | 0.0 | 0.00 | 0.00 | 0.00 | 10 | 1008.4 |
| 20260506162241 | 51 | 180 | 4.3 | 0.0 | 0.00 | 0.00 | 0.00 | 10 | 1008.4 |
| 20260506161214 | 51 | 135 | 0.0 | 0.0 | 0.00 | 0.00 | 0.00 | 10 | 1008.4 |
| 20260506160146 | 51 | 270 | 0.9 | 0.0 | 0.00 | 0.00 | 0.00 | 10 | 1008.3 |
| 20260506155118 | 51 | 135 | 1.7 | 0.0 | 0.00 | 0.00 | 0.00 | 10 | 1008.4 |
| 20260506154051 | 51 | 0.0 | 0.0 | 0.00 | 0.00 | 0.00 | 10 | 1008.4 | |
| 20260506153023 | 51 | 90 | 5.2 | 0.0 | 0.00 | 0.00 | 0.00 | 10 | 1008.3 |
| 20260506150928 | 52 | 90 | 1.7 | 0.0 | 0.00 | 0.00 | 0.00 | 10 | 1008.3 |
| 20260506145901 | 52 | 135 | 4.3 | 0.0 | 0.00 | 0.00 | 0.00 | 10 | 1008.2 |
| 20260506144833 | 52 | 135 | 0.9 | 0.0 | 0.00 | 0.00 | 0.00 | 10 | 1008.3 |
| 20260506142738 | 52 | 315 | 1.7 | 0.0 | 0.00 | 0.00 | 0.00 | 10 | 1008.2 |
| 20260506141711 | 52 | 315 | 0.0 | 0.0 | 0.00 | 0.00 | 0.00 | 10 | 1008.1 |
| 20260506140643 | 52 | 315 | 0.9 | 0.0 | 0.00 | 0.00 | 0.00 | 10 | 1008.2 |
| 20260506135616 | 52 | 5.2 | 0.0 | 0.00 | 0.00 | 0.00 | 10 | 1008.2 | |
| 20260506134548 | 52 | 135 | 2.6 | 0.0 | 0.00 | 0.00 | 0.00 | 10 | 1008.3 |
| 20260506133521 | 52 | 135 | 0.0 | 0.0 | 0.00 | 0.00 | 0.00 | 10 | 1008.2 |
| 20260506132453 | 52 | 45 | 4.3 | 0.0 | 0.00 | 0.00 | 0.00 | 10 | 1008.2 |
| 20260506131425 | 52 | 90 | 0.0 | 0.0 | 0.00 | 0.00 | 0.00 | 10 | 1008.2 |
| 20260506130358 | 51 | 315 | 3.5 | 0.0 | 0.00 | 0.00 | 0.00 | 10 | 1008.2 |
| 20260506123235 | 52 | 90 | 0.0 | 0.0 | 0.00 | 0.00 | 0.00 | 10 | 1008.1 |
| 20260506122208 | 51 | 270 | 0.0 | 0.0 | 0.00 | 0.00 | 0.00 | 10 | 1008.0 |
| 20260506121140 | 52 | 315 | 0.0 | 0.0 | 0.00 | 0.00 | 0.00 | 10 | 1007.9 |
| 20260506115045 | 52 | 270 | 1.7 | 0.0 | 0.00 | 0.00 | 0.00 | 10 | 1007.9 |
| 20260506114018 | 51 | 90 | 3.5 | 0.0 | 0.00 | 0.00 | 0.00 | 10 | 1007.9 |
| 20260506112950 | 51 | 135 | 2.6 | 0.0 | 0.00 | 0.00 | 0.00 | 10 | 1007.9 |
| 20260506111923 | 51 | 135 | 4.3 | 0.0 | 0.00 | 0.00 | 0.00 | 10 | 1007.9 |
| 20260506110855 | 52 | 135 | 0.0 | 0.0 | 0.00 | 0.00 | 0.00 | 10 | 1007.9 |
| 20260506105827 | 51 | 315 | 7.0 | 0.0 | 0.00 | 0.00 | 0.00 | 10 | 1007.9 |
| 20260506104800 | 50 | 135 | 0.0 | 0.0 | 0.00 | 0.00 | 0.00 | 10 | 1008.0 |
| 20260506103732 | 51 | 0.9 | 0.0 | 0.01 | 0.00 | 0.00 | 10 | 1007.9 | |
| 20260506102705 | 51 | 90 | 0.0 | 0.0 | 0.01 | 0.00 | 0.00 | 10 | 1007.9 |
| 20260506101637 | 51 | 315 | 0.9 | 0.0 | 0.00 | 0.00 | 0.00 | 10 | 1007.7 |
| 20260506100610 | 51 | 270 | 0.0 | 0.0 | 0.00 | 0.00 | 0.00 | 10 | 1007.7 |
| 20260506095542 | 51 | 315 | 0.0 | 0.0 | 0.00 | 0.00 | 0.00 | 10 | 1007.7 |
| 20260506094515 | 50 | 315 | 0.0 | 0.0 | 0.00 | 0.00 | 0.00 | 10 | 1007.7 |